ENRA Weather Reports


Display with metric or nautical units.
time (UTC)temp
F
wind
direction
speed
MPH
gust
MPH
rain 1hr
in
rain 24hr
in
rain mn
in
humidity
%
barometer
mb
20260506190306 35 110 3.0 0.0 0.00 0.00 0.00 93 1011.0
20260506183307 35 0 2.0 0.0 0.00 0.00 0.00 93 1011.0
20260506180307 37 10 3.0 0.0 0.00 0.00 0.00 86 1011.0
20260506173308 37 210 3.0 0.0 0.00 0.00 0.00 86 1010.0
20260506170307 39 220 3.0 0.0 0.00 0.00 0.00 75 1010.0
20260506163307 41 190 3.0 0.0 0.00 0.00 0.00 70 1010.0
20260506160307 39 270 5.0 0.0 0.00 0.00 0.00 75 1010.0
20260506153307 41 250 6.0 0.0 0.00 0.00 0.00 75 1010.0
20260506150307 42 240 6.0 0.0 0.00 0.00 0.00 70 1010.0
20260506143307 42 250 6.0 0.0 0.00 0.00 0.00 75 1009.0
20260506140307 39 300 5.0 0.0 0.00 0.00 0.00 80 1009.0
20260506133307 39 240 10.0 0.0 0.00 0.00 0.00 80 1009.0
20260506130308 41 230 10.0 0.0 0.00 0.00 0.00 75 1009.0
20260506123307 42 200 7.0 0.0 0.00 0.00 0.00 81 1009.0
20260506120308 39 120 3.0 0.0 0.00 0.00 0.00 86 1009.0
20260506113308 39 10 5.0 0.0 0.00 0.00 0.00 80 1009.0
20260506110307 37 310 8.0 0.0 0.00 0.00 0.00 86 1008.0
20260506103306 39 250 8.0 0.0 0.00 0.00 0.00 80 1008.0
20260506100308 44 340 3.0 0.0 0.00 0.00 0.00 65 1008.0
20260506093307 41 0 0.0 0.0 0.00 0.00 0.00 65 1007.0
20260506090307 41 0 2.0 0.0 0.00 0.00 0.00 75 1007.0
20260506083307 39 20 3.0 0.0 0.00 0.00 0.00 80 1007.0
20260506073307 37 180 3.0 0.0 0.00 0.00 0.00 86 1007.0
20260506070306 37 160 5.0 0.0 0.00 0.00 0.00 86 1007.0
20260506060306 35 0 0.0 0.0 0.00 0.00 0.00 93 1006.0
20260506050306 33 140 2.0 0.0 0.00 0.00 0.00 10 1005.0
20260506043307 33 0 2.0 0.0 0.00 0.00 0.00 10 1005.0
20260506040307 33 0 0.0 0.0 0.00 0.00 0.00 10 1005.0
20260506033307 33 0 0.0 0.0 0.00 0.00 0.00 93 1005.0
20260506030307 33 0 2.0 0.0 0.00 0.00 0.00 93 1005.0
20260506023306 33 0 1.0 0.0 0.00 0.00 0.00 93 1004.0
20260506020306 33 360 2.0 0.0 0.00 0.00 0.00 93 1004.0
20260506013307 32 0 1.0 0.0 0.00 0.00 0.00 10 1004.0
20260506010307 33 0 0.0 0.0 0.00 0.00 0.00 93 1004.0
20260506003306 33 0 2.0 0.0 0.00 0.00 0.00 93 1003.0
20260506000307 32 0 0.0 0.0 0.00 0.00 0.00 10 1003.0
20260505233307 33 90 3.0 0.0 0.00 0.00 0.00 93 1003.0
20260505230306 33 0 0.0 0.0 0.00 0.00 0.00 93 1003.0
20260505223306 33 0 1.0 0.0 0.00 0.00 0.00 10 1003.0
20260505220306 33 0 0.0 0.0 0.00 0.00 0.00 10 1003.0
20260505213306 33 0 1.0 0.0 0.00 0.00 0.00 93 1003.0
20260505210306 33 0 1.0 0.0 0.00 0.00 0.00 93 1003.0
20260505203306 33 0 2.0 0.0 0.00 0.00 0.00 10 1003.0
20260505200306 33 80 3.0 0.0 0.00 0.00 0.00 10 1003.0
20260505193306 33 0 1.0 0.0 0.00 0.00 0.00 10 1003.0